Twin Falls, ID

7:53 PM MDT on April 26, 2017 (GMT -0600)
Joslin Field-Magic Valley Regional

Weather History for KTWF - May, 2013

Change the Weather History Date:

Sunday, May 12, 2013

  Actual Average Record
Temperature  
Mean Temperature 73 °F -  
Max Temperature 90 °F 69 °F 90 °F (2001)
Min Temperature 56 °F 42 °F 30 °F (1981)
Degree Days  
Heating Degree Days 0 10  
Month to date heating degree days 97 139  
Since 1 July heating degree days 5549 5937  
Cooling Degree Days 8 0  
Month to date cooling degree days 10 0  
Year to date cooling degree days 10 1  
Growing Degree Days 23 (Base 50)    
Moisture  
Dew Point 37 °F    
Average Humidity 34    
Maximum Humidity 52    
Minimum Humidity 15    
Precipitation  
Precipitation 0.00 in 0.03 in 0.31 in (1980)
Month to date precipitation 0.02 0.54  
Year to date precipitation 2.52 4.51  
Sea Level Pressure  
Sea Level Pressure 29.99 in    
Wind  
Wind Speed 8 mph (South)    
Max Wind Speed 15 mph    
Max Gust Speed 18 mph    
Visibility 10 miles    
Events      
T = Trace of Precipitation, MM = Missing Value Source: NWS Daily Summary

Daily Weather History Graph

Daily Weather History Graph

Search for Another Location

Airport or City:

Trip Planner

Search our weather history database for the weather conditions in past years. The results will help you decide how hot, cold, wet, or windy it might be!

Date:

Astronomy

May. 12, 2013 Rise Set
Actual Time 6:19 AM MDT 8:50 PM MDT
Civil Twilight 5:47 AM MDT 9:22 PM MDT
Nautical Twilight 5:07 AM MDT 10:02 PM MDT
Astronomical Twilight 4:22 AM MDT 10:47 PM MDT
Moon 8:16 AM MDT (5/12) 11:20 PM MDT (5/12)
Length of Visible Light 15h 35m
Length of Day
14h 31m
Waxing Crescent, 7% of the Moon is Illuminated
May 12
Waxing Crescent
May 17
First Quarter
May 24
Full
May 31
Last Quarter
Jun 8
New

Hourly Weather History & Observations

Time (MDT) Temp. Dew Point Humidity Pressure Visibility Wind Dir Wind Speed Gust Speed Precip Events Conditions
12:53 AM 60.1 °F 32.0 °F 35% 30.04 in 10.0 mi South 13.8 mph - N/A   Clear
1:53 AM 63.0 °F 33.1 °F 33% 30.04 in 10.0 mi South 13.8 mph - N/A   Clear
2:53 AM 64.0 °F 32.0 °F 30% 30.03 in 10.0 mi South 11.5 mph - N/A   Clear
3:53 AM 64.9 °F 30.9 °F 28% 30.02 in 10.0 mi South 12.7 mph - N/A   Clear
4:53 AM 61.0 °F 32.0 °F 34% 30.02 in 10.0 mi South 10.4 mph - N/A   Clear
5:53 AM 62.1 °F 32.0 °F 32% 30.01 in 10.0 mi South 13.8 mph - N/A   Clear
6:53 AM 57.0 °F 35.1 °F 44% 30.04 in 10.0 mi ENE 3.5 mph - N/A   Clear
7:53 AM 66.9 °F 36.0 °F 32% 30.04 in 10.0 mi Calm Calm - N/A   Clear
8:53 AM 69.1 °F 37.9 °F 32% 30.08 in 10.0 mi Calm Calm - N/A   Clear
9:53 AM 75.0 °F 42.1 °F 31% 30.07 in 10.0 mi ENE 3.5 mph - N/A   Clear
10:53 AM 80.1 °F 41.0 °F 25% 30.05 in 10.0 mi North 5.8 mph - N/A   Partly Cloudy
11:53 AM 82.0 °F 37.0 °F 20% 30.05 in 10.0 mi Calm Calm - N/A   Clear
12:53 PM 87.1 °F 35.1 °F 16% 30.02 in 10.0 mi WNW 9.2 mph - N/A   Clear
1:53 PM 89.1 °F 36.0 °F 15% 30.00 in 10.0 mi NNW 9.2 mph - N/A   Clear
2:53 PM 87.1 °F 35.1 °F 16% 29.99 in 10.0 mi WNW 8.1 mph - N/A   Clear
3:53 PM 88.0 °F 34.0 °F 15% 29.96 in 10.0 mi NW 8.1 mph - N/A   Clear
4:53 PM 87.1 °F 36.0 °F 16% 29.95 in 10.0 mi NW 9.2 mph - N/A   Unknown
5:53 PM 84.9 °F 37.9 °F 19% 29.94 in 10.0 mi NNW 6.9 mph - N/A   Clear
6:53 PM 82.9 °F 37.9 °F 20% 29.94 in 10.0 mi Calm Calm - N/A   Clear
7:53 PM 75.9 °F 53.1 °F 45% 29.92 in 10.0 mi SE 4.6 mph - N/A   Clear
8:53 PM 66.9 °F 48.0 °F 51% 29.92 in 10.0 mi SSE 13.8 mph - N/A   Clear
9:53 PM 66.9 °F 42.1 °F 40% 29.91 in 10.0 mi SSE 12.7 mph - N/A   Clear
10:53 PM 66.0 °F 37.0 °F 34% 29.91 in 10.0 mi South 13.8 mph - N/A   Clear
11:53 PM 68.0 °F 36.0 °F 31% 29.90 in 10.0 mi South 12.7 mph - N/A   Clear